Regional Weather Roundup
Issued by NWS

Home | Current Version | Previous Version | Graphics & Text | Print | Product List | Glossary On
Versions: 1 2 3 4 5 6 7 8 9 10 11 12 13 14 15 16 17 18 19 20 21 22 23 24 25 26 27 28 29 30 31 32 33 34 35 36 37 38 39 40 41 42 43 44 45 46 47 48 49 50
195
ASUS43 KDTX 190710
RWRMI
MICHIGAN HOURLY REGIONAL WEATHER ROUNDUP
NATIONAL WEATHER SERVICE DETROIT/PONTIAC MI
300 AM EDT THU APR 19 2018

NOTE: "FAIR" INDICATES FEW OR NO CLOUDS BELOW 12,000 FEET WITH NO
SIGNIFICANT WEATHER AND/OR OBSTRUCTION TO VISIBILITY.

MIZ047>049-052>055-059>063-066>070-074>076-081>083-190800-
SOUTHEAST LOWER MICHIGAN

CITY           SKY/WX    TMP DP  RH WIND       PRES   REMARKS
ADRIAN         CLOUDY    33  30  88 N10       29.88R WCI  25
ALMA           FAIR      33  28  83 N5        29.94R WCI  28
ANN ARBOR      CLOUDY    34  27  75 N12       29.86S WCI  25
BAD AXE        CLOUDY    36  26  68 N5        29.90R WCI  32
CARO           FAIR      32  27  80 N6        29.89S WCI  26
DETROIT CITY   CLOUDY    34  27  75 N12       29.86F WCI  25
DETROIT        CLOUDY    35  25  66 N13       29.86S WCI  26
FLINT          CLOUDY    33  28  81 N6        29.89S WCI  28
GROSSE ILE     CLOUDY    34  28  76 N10       29.84F WCI  26
HILLSDALE      CLOUDY    32  28  86 N8        29.87R WCI  25
HOWELL         CLOUDY    32  30  92 N5        29.88S WCI  27

CITY           SKY/WX    TMP DP  RH WIND       PRES   REMARKS
JACKSON        CLOUDY    33  27  78 NW10      29.89R WCI  25
LAMBERTVILLE   CLOUDY    35  31  87 N5        29.86R WCI  31
LANSING        CLOUDY    33  30  88 NW5       29.92R WCI  29
LAPEER         CLOUDY    33  27  77 NE6       29.88S WCI  28
MASON          CLOUDY    33  29  83 N6        29.91R WCI  28
MONROE         CLOUDY    34  28  77 N14       29.84S WCI  24
PONTIAC        LGT SNOW  31  29  92 N10       29.85F FOG     WCI  22
PORT HOPE        N/A     35  30  82 N12       29.86F WCI  27
PORT HURON     CLOUDY    32  27  80 NW5       29.86F WCI  27
TRI CITIES     FAIR      33  27  78 N10       29.92R WCI  25
MIDLAND        FAIR      32  26  77 N3        29.92S
TROY           CLOUDY    35  28  75 N7        29.87F WCI  29
SAGINAW HB     FAIR      32  30  93 N6        29.91R WCI  26
$$
MIZ043>046-050>051-056>058-064>065-071>073-077>080-190800-
SOUTHWEST LOWER MICHIGAN

CITY           SKY/WX    TMP DP  RH WIND       PRES   REMARKS
BATTLE CREEK   CLOUDY    33  30  88 N6        29.93R WCI  28
BENTON HARBOR  CLOUDY    35  31  85 VRB7      29.97R FOG     WCI  29
BIG RAPIDS     FAIR      32  25  74 N6        29.95R WCI  26
COLDWATER      CLOUDY    33  32  96 N9G16     29.91R WCI  25
FREMONT        FAIR      30  23  76 N6        29.98R WCI  24
HOLLAND        CLOUDY    34  32  92 NW5       29.98R WCI  30
GRAND RAPIDS   CLOUDY    34  31  88 NW7       29.95R WCI  28
IONIA          CLOUDY    33  31  94 NW5       29.93R WCI  28
KALAMAZOO      CLOUDY    34  30  85 N7        29.94R WCI  28
LUDINGTON      FAIR      32  28  86 N3        30.00R
MARSHALL       CLOUDY    32  30  91 N3        29.91R
MOUNT PLEASANT FAIR      34  27  77 N5        29.93S WCI  30
MUSKEGON       FAIR      32  28  85 N7        29.99R WCI  26
SOUTH HAVEN    CLOUDY    35  32  90 N6        29.98R WCI  30
$$
MIZ016>042-190800-
NORTHERN LOWER MICHIGAN

CITY           SKY/WX    TMP DP  RH WIND       PRES   REMARKS
ALPENA         MOCLDY    32  23  69 N12       29.96R WCI  23
BEAVER ISLAND  FAIR      35  22  61 N8        30.05R WCI  28
BELLAIRE       FAIR      28  25  88 CALM      30.02R
CADILLAC       FAIR      30  26  83 N7        29.95R WCI  23
CHARLEVOIX     FAIR      33  26  76 N6        30.05S WCI  28
FRANKFORT      FAIR      36  26  67 N6        30.02S WCI  31
GAYLORD        FAIR      30  21  69 N6        29.97R WCI  24
GRAYLING       FAIR      29  25  85 N8        29.95S WCI  21
HARBOR SPRINGS FAIR      32  20  61 N6        30.01R WCI  26
HOUGHTON LAKE  FAIR      32  24  72 N8        29.95S WCI  25
MANISTEE       FAIR      35  24  64 N8G18     30.00R WCI  29
OSCODA         MOCLDY    33  25  71 NW10      29.93R WCI  25
PELLSTON       FAIR      30  20  66 N10       30.02R WCI  21
ROGERS CITY    FAIR      33  23  66 N13G20    29.99R WCI  24
TRAVERSE CITY  FAIR      35  26  69 N7        30.01R WCI  29
$$
MIZ007>008-015-190800-
EASTERN UPPER MICHIGAN

CITY           SKY/WX    TMP DP  RH WIND       PRES   REMARKS
KINROSS        FAIR      29  19  66 N10       30.01S WCI  20
MACKINAC ISLAN FAIR      31  22  69 N8        30.01R WCI  24
NEWBERRY       FAIR      30  19  63 N9        30.05S WCI  22
S. S. MARIE    FAIR      34  17  50 N5        30.00S WCI  30
MUNISING         N/A     30  22  72 N13       30.11S WCI  20
$$
MIZ004>006-011>014-085-190800-
CENTRAL UPPER MICHIGAN

CITY           SKY/WX    TMP DP  RH WIND       PRES   REMARKS
MANISTIQUE     FAIR      31  22  69 N10       30.07S WCI  23
ESCANABA       FAIR      33  21  61 N6        30.11R WCI  28
MENOMINEE      FAIR      34  19  54 N12       30.11R WCI  25
SAWYER-GWINN   FAIR      30  21  69 N12       30.13R WCI  21
$$
MIZ001>003-009>011-084-190800-
WESTERN UPPER MICHIGAN

CITY           SKY/WX    TMP DP  RH WIND       PRES   REMARKS
IRON MOUNTAIN  FAIR      28  17  63 NW9       30.11S WCI  19
HOUGHTON       FAIR      34  19  54 N13       30.17R WCI  25
COPPER HARBOR    N/A     30  24  78 N5        30.20R WCI  25
IRONWOOD       FAIR      17  15  92 W3        30.23R
$$

ABBREVIATIONS USED IN REMARKS
   TC - TEMPERATURE IN CELSIUS
  WCI - WIND CHILL INDEX
   HX - HEAT INDEX
  VSB - VISIBILITY





USA.gov is the U.S. government's official web portal to all federal, state and local government web resources and services.